Time,TemperatureF,DewpointF,PressureIn,WindDirection,WindDirectionDegrees,WindSpeedMPH,WindSpeedGustMPH,Humidity,HourlyPrecipIn,Conditions,Clouds,dailyrainin,SoftwareType,DateUTC
2013-01-13 00:00:00,70.6,65.2,29.69,SSE,159,8.0,8.0,83,0.00,,,0.00,Wunderground v.1.15,2013-01-13 06:00:00,
2013-01-13 00:10:00,70.7,65.3,29.70,South,179,9.0,9.0,83,0.00,,,0.00,Wunderground v.1.15,2013-01-13 06:10:00,
2013-01-13 00:20:00,70.7,65.3,29.70,South,180,9.0,9.0,83,0.00,,,0.00,Wunderground v.1.15,2013-01-13 06:20:00,
2013-01-13 00:30:00,71.0,65.2,29.70,SSE,167,11.0,11.0,82,0.00,,,0.00,Wunderground v.1.15,2013-01-13 06:30:00,
2013-01-13 00:40:00,69.9,65.2,29.71,SSW,192,11.0,11.0,85,0.90,,,0.05,Wunderground v.1.15,2013-01-13 06:40:00,
2013-01-13 00:50:00,68.5,65.4,29.71,South,180,9.0,9.0,90,0.10,,,0.11,Wunderground v.1.15,2013-01-13 06:50:00,
2013-01-13 01:00:00,68.6,65.5,29.71,South,188,8.0,8.0,90,0.04,,,0.11,Wunderground v.1.15,2013-01-13 07:00:00,
2013-01-13 01:10:00,68.9,65.5,29.72,SW,217,9.0,9.0,89,0.00,,,0.11,Wunderground v.1.15,2013-01-13 07:10:00,
2013-01-13 01:20:00,69.0,65.6,29.72,WSW,246,6.0,6.0,89,0.00,,,0.11,Wunderground v.1.15,2013-01-13 07:20:00,
2013-01-13 01:30:00,62.7,58.1,29.76,WNW,288,6.0,6.0,85,0.00,,,0.11,Wunderground v.1.15,2013-01-13 07:30:00,
2013-01-13 01:40:00,60.7,58.1,29.73,NNW,327,3.0,7.0,91,0.46,,,0.15,Wunderground v.1.15,2013-01-13 07:40:00,
2013-01-13 01:50:00,60.5,58.8,29.73,WSW,252,8.0,18.0,94,0.73,,,0.23,Wunderground v.1.15,2013-01-13 07:50:00,
2013-01-13 02:00:00,59.7,58.0,29.77,WSW,242,10.0,10.0,94,0.66,,,0.35,Wunderground v.1.15,2013-01-13 08:00:00,
2013-01-13 02:10:00,59.0,57.6,29.77,SW,231,7.0,7.0,95,0.80,,,0.47,Wunderground v.1.15,2013-01-13 08:10:00,
2013-01-13 02:20:00,57.8,56.4,29.77,WNW,286,8.0,9.0,95,0.86,,,0.59,Wunderground v.1.15,2013-01-13 08:20:00,
2013-01-13 02:30:00,54.8,53.1,29.77,West,260,9.0,9.0,94,0.95,,,0.72,Wunderground v.1.15,2013-01-13 08:30:00,
2013-01-13 02:40:00,53.2,51.8,29.79,NNW,329,7.0,7.0,95,0.54,,,0.83,Wunderground v.1.15,2013-01-13 08:40:00,
2013-01-13 02:50:00,52.6,51.2,29.79,NW,323,5.0,5.0,95,0.13,,,0.87,Wunderground v.1.15,2013-01-13 08:50:00,
2013-01-13 03:00:00,52.3,51.2,29.81,NW,322,6.0,10.0,96,0.16,,,0.89,Wunderground v.1.15,2013-01-13 09:00:00,
2013-01-13 03:10:00,52.3,51.2,29.81,NNE,32,4.0,4.0,96,0.21,,,0.93,Wunderground v.1.15,2013-01-13 09:10:00,
2013-01-13 03:20:00,51.9,50.8,29.81,North,355,5.0,5.0,96,0.20,,,0.95,Wunderground v.1.15,2013-01-13 09:20:00,
2013-01-13 03:30:00,51.7,50.6,29.80,NNE,24,3.0,3.0,96,0.11,,,0.97,Wunderground v.1.15,2013-01-13 09:30:00,
2013-01-13 03:40:00,51.5,50.4,29.79,North,350,5.0,7.0,96,0.12,,,1.00,Wunderground v.1.15,2013-01-13 09:40:00,
2013-01-13 03:50:00,50.4,49.3,29.79,NW,313,6.0,9.0,96,0.24,,,1.03,Wunderground v.1.15,2013-01-13 09:50:00,
2013-01-13 04:00:00,49.1,48.0,29.84,WNW,300,5.0,7.0,96,0.27,,,1.07,Wunderground v.1.15,2013-01-13 10:00:00,
2013-01-13 04:10:00,48.0,46.9,29.83,North,5,7.0,7.0,96,0.20,,,1.11,Wunderground v.1.15,2013-01-13 10:10:00,
2013-01-13 04:20:00,47.2,46.1,29.83,North,355,7.0,7.0,96,0.12,,,1.13,Wunderground v.1.15,2013-01-13 10:20:00,
2013-01-13 04:30:00,46.7,45.6,29.84,North,355,5.0,7.0,96,0.29,,,1.17,Wunderground v.1.15,2013-01-13 10:30:00,
2013-01-13 04:40:00,46.3,45.2,29.84,NNE,16,6.0,7.0,96,0.27,,,1.21,Wunderground v.1.15,2013-01-13 10:40:00,
2013-01-13 04:50:00,45.6,44.5,29.84,NW,325,6.0,6.0,96,0.18,,,1.24,Wunderground v.1.15,2013-01-13 10:50:00,
2013-01-13 05:00:00,45.4,45.4,29.84,WNW,303,4.0,8.0,100,0.24,,,1.27,Wunderground v.1.15,2013-01-13 11:00:00,
2013-01-13 05:10:00,45.0,43.9,29.84,North,355,6.0,6.0,96,0.27,,,1.31,Wunderground v.1.15,2013-01-13 11:10:00,
2013-01-13 05:20:00,44.7,43.6,29.84,NE,48,8.0,8.0,96,0.26,,,1.35,Wunderground v.1.15,2013-01-13 11:20:00,
2013-01-13 05:30:00,44.3,43.2,29.78,NW,319,8.0,12.0,96,0.18,,,1.38,Wunderground v.1.15,2013-01-13 11:30:00,
2013-01-13 05:40:00,43.1,42.0,29.85,NW,309,9.0,11.0,96,0.07,,,1.39,Wunderground v.1.15,2013-01-13 11:40:00,
2013-01-13 05:50:00,42.1,41.0,29.85,NW,315,9.0,12.0,96,0.00,,,1.39,Wunderground v.1.15,2013-01-13 11:50:00,
2013-01-13 06:00:00,41.6,40.5,29.87,North,355,8.0,8.0,96,0.00,,,1.39,Wunderground v.1.15,2013-01-13 12:00:00,
2013-01-13 06:10:00,41.8,40.7,29.85,NE,49,5.0,14.0,96,0.00,,,1.39,Wunderground v.1.15,2013-01-13 12:10:00,
2013-01-13 06:20:00,41.5,40.4,29.85,NE,44,9.0,10.0,96,0.00,,,1.39,Wunderground v.1.15,2013-01-13 12:20:00,